Home   Weather   Davenport   Past weeks

Flag for USA Past Weather in Davenport, Iowa, USA — Yesterday and Last 2 Weeks

Now
75 °F

Partly cloudy.


Feels Like: 75 °F
Forecast: 67 / 79 °F
Wind: 15 mph from Southwest

Location: Davenport Municipal Airport

Current Time: Aug 17, 2017 at 2:42:50 am

Latest Report: Aug 16, 2017 at 11:52 pm


Visibility: 10 mi

Pressure: 29.75 "Hg

Humidity: 85%

Dew Point: 70 °F

Location of DavenportLocation

Past Weather in Davenport — Graph

°F

Davenport Temperature Yesterday

Maximum temperature yesterday: 83 °F (at 3:37 pm)
Minimum temperature yesterday: 65 °F (at 6:32 am)
Average temperature yesterday: 76 °F

High & Low Weather Summary for the Past Weeks

 TemperatureHumidityPressure
High84 °F (Aug 2, 12:52 pm)100% (Aug 7, 5:05 am)30.23 "Hg (Aug 7, 5:05 am)
Low49 °F (Aug 8, 5:52 am)42% (Aug 8, 1:52 pm)29.75 "Hg (Aug 16, 11:52 pm)
Average68 °F77%30.01 "Hg
* Reported Aug 1 11:52 pm — Aug 16 11:52 pm, Davenport. Weather by CustomWeather, © 2017

Note: Actual official high and low records may vary slightly from our data, if they occured in-between our weather recording intervals... More about our weather records

Advertising

Davenport Weather History for the Previous 24 Hours

Scroll right to see more
 ConditionsComfort  
Time TempWeatherWind HumidityBarometerVisibility
11:52 pm
Wed, Aug 16
75 °FPartly cloudy.15 mph85%29.75 "Hg10 mi
11:16 pm75 °FPartly cloudy.17 mph88%29.79 "Hg10 mi
10:52 pm76 °FPassing clouds.14 mph88%29.76 "Hg10 mi
10:35 pm76 °FPassing clouds.13 mph88%29.79 "Hg10 mi
9:52 pm77 °FClear.12 mph85%29.77 "Hg10 mi
8:52 pm77 °FClear.10 mph85%29.79 "Hg10 mi
7:52 pm79 °FSunny.14 mph77%29.78 "Hg10 mi
6:52 pm81 °FPassing clouds.15 mph72%29.78 "Hg10 mi
5:52 pm82 °FPassing clouds.15 mph70%29.78 "Hg10 mi
4:52 pm82 °FBroken clouds.13 mph72%29.80 "Hg10 mi
4:40 pm82 °FPartly sunny.10 mph70%29.83 "Hg10 mi
4:06 pm81 °FMore clouds than sun.15 mph72%29.81 "Hg10 mi
3:52 pm82 °FPartly sunny.10 mph72%29.78 "Hg10 mi
3:37 pm83 °FPartly sunny.13 mph72%29.82 "Hg10 mi
2:52 pm82 °FBroken clouds.12 mph74%29.83 "Hg10 mi
1:52 pm80 °FOvercast.12 mph76%29.87 "Hg10 mi
12:52 pm80 °FMostly cloudy.14 mph76%29.88 "Hg10 mi
12:36 pm80 °FLight rain. Partly sunny.17 mph74%29.91 "Hg10 mi
12:07 pm81 °FPartly sunny.9 mph72%29.92 "Hg10 mi
10:52 am80 °FSunny.12 mph71%29.92 "Hg10 mi
9:52 am76 °FSunny.10 mph77%29.93 "Hg10 mi
8:52 am71 °FSunny.12 mph84%29.94 "Hg7 mi
7:52 am68 °FFog.10 mph90%29.94 "Hg4 mi
7:03 am66 °FFog.12 mph93%29.98 "Hg3 mi
6:32 am65 °FFog.8 mph97%29.97 "Hg2 mi
4:52 am66 °FFog.8 mph93%29.94 "Hg5 mi
3:52 am68 °FFog.7 mph90%29.94 "Hg6 mi
2:52 am68 °FPassing clouds.9 mph90%29.94 "Hg7 mi
Weather by CustomWeather, © 2017

See weather overviewHow to use our weather pages